Погода в Жабинке

Беларусь     52°11′39″N   24°01′12″E
темп.,
°C
ветер,
м/с
пор.,
м/с
влажн.,
%
обл.,
%
осадки,
мм/ч
давл.,
гПа
погр.,
м
27 февраля, сб
сб2700:00+3з51386100 0.0 1021531
03:00+3зсз61284100 0.0 1022631
06:00+2зсз6138961 0.0 1021544
09:00+3зсз7129080 0.0 1021672
12:00+4сз71181100 0.0 1022891
15:00+7сз8126081 0.0 10241295
18:00+6сз7126433 0.0 10241198
21:00+3сз6137726 0.0 1026634
28 февраля, вс
вс2800:00+1сз612861 0.0 1028490
03:000сз510890 0.0 1029346
06:00−1сз489313 0.0 1029335
09:000сз588953 0.0 1030399
12:00+3сз587157 0.0 1029609
15:00+6сз696439 0.0 1029746
18:00+6зсз6116630 0.0 1027789
21:00+5сз6147165 0.0 1028587
1 марта, пн
пн100:00+4сз61390100 0.0 1028605
03:00+3ссз51188100 0.0 1030564
06:00+2ссз479198 0.0 1030297
09:000ссз369757 0.0 1032175
12:00+4зсз347816 0.0 1033365
15:00+7зсз46689 0.0 1033658
18:00+8зсз47678 0.0 1032541
21:00+5з498028 0.0 1032213
2 марта, вт
вт200:00+4з41085100 0.0 1033245
03:00+3з5119085 0.0 1032260
06:00+2з613910 0.0 1031293
09:00+2з614900 0.0 1030386
12:00+6зсз711670 0.0 1030534
15:00+10зсз711530 0.0 1030703
18:00+9зсз510570 0.0 1029682
21:00+5зсз48750 0.0 1029171
3 марта, ср
ср300:00+3сз35850 0.0 103096
03:00+2зсз33890 0.0 103054
06:00+1зсз33890 0.0 102949
09:00+1зсз22860 0.0 102937
12:00+6з22650 0.0 1029340
15:00+8з22570 0.0 1028555
18:00+8з116140 0.0 102724
21:00+5юз127320 0.0 102622